This is the latest recevied weather packets stored in our database for station/object OH2NJR. If no packets are shown the sender has not sent any weather packets the latest 1 day(s).
| Time | Temp. | Humidity | Pressure | Rain* | Wind** | Luminosity | Snow |
|---|---|---|---|---|---|---|---|
| 1778026289 | 3.33° C | 74% | 1009.1 hPa | 0 mm | 0.89 m/s, 254° | - | - |
| 1778026283 | 3.33° C | 74% | 1009.1 hPa | 0 mm | 0.89 m/s, 254° | - | - |
| 1778025167 | 3.33° C | 74% | 1009 hPa | 0 mm | 1.34 m/s, 344° | - | - |
| 1778024183 | 3.33° C | 73% | 1008.8 hPa | 0 mm | 0.89 m/s, 335° | - | - |
| 1778023178 | 3.89° C | 72% | 1008.8 hPa | 0 mm | 1.34 m/s, 342° | - | - |
| 1778022178 | 3.89° C | 70% | 1008.6 hPa | 0 mm | 0.89 m/s, 160° | - | - |
| 1778021208 | 3.89° C | 71% | 1008.6 hPa | 0 mm | 0.89 m/s, 352° | - | - |
| 1778020088 | 3.89° C | 70% | 1008.6 hPa | 0 mm | 1.34 m/s, 351° | - | - |
| 1778019033 | 3.89° C | 68% | 1008.4 hPa | 0 mm | 1.34 m/s, 97° | - | - |
| 1778017878 | 4.44° C | 67% | 1008.4 hPa | 0 mm | 1.34 m/s, 24° | - | - |
| 1778016703 | 4.44° C | 65% | 1008.3 hPa | 0 mm | 0.89 m/s, 100° | - | - |
| 1778015728 | 5° C | 63% | 1008.1 hPa | 0 mm | 0.89 m/s, 133° | - | - |
| 1778014769 | 5.56° C | 58% | 1007.3 hPa | 0 mm | 0.89 m/s, 21° | - | - |
| 1778013593 | 6.11° C | 57% | 1007.2 hPa | 0 mm | 1.34 m/s, 150° | - | - |
| 1778012433 | 6.11° C | 54% | 1007.2 hPa | 0 mm | 1.34 m/s, 298° | - | - |
| 1778011413 | 6.67° C | 50% | 1007 hPa | 0 mm | 0.89 m/s, 115° | - | - |
| 1778010408 | 6.67° C | 49% | 1006.9 hPa | 0 mm | 1.34 m/s, 41° | - | - |
| 1778009218 | 7.22° C | 45% | 1006.9 hPa | 0 mm | 1.34 m/s, 113° | - | - |
| 1778008103 | 7.22° C | 46% | 1006.6 hPa | 0 mm | 1.34 m/s, 59° | - | - |
| 1778007043 | 7.22° C | 46% | 1006.4 hPa | 0 mm | 0.89 m/s, 99° | - | - |
| 1778006023 | 7.78° C | 42% | 1006.3 hPa | 0 mm | 1.34 m/s, 122° | - | - |
| 1778004928 | 7.78° C | 45% | 1006.1 hPa | 0 mm | 1.79 m/s, 333° | - | - |
| 1778003748 | 8.33° C | 45% | 1006 hPa | 0 mm | 1.79 m/s, 110° | - | - |
| 1778002673 | 8.89° C | 43% | 1006 hPa | 0 mm | 1.79 m/s, 271° | - | - |
| 1778001499 | 8.89° C | 42% | 1005.9 hPa | 0 mm | 1.34 m/s, 149° | - | - |
* Rain latest hour (hover to see other rain measurements)
** Current wind speed in m/s (hover to see current wind gust speed)